"Period start","avg(HW err(1)/warn(2) (#))","avg(Visibility (m))","avg(Weather code (#))","avg(Precip intensity (mm/h))","min(HW err(1)/warn(2) (#))","max(HW err(1)/warn(2) (#))","std(HW err(1)/warn(2) (#))","med(HW err(1)/warn(2) (#))","min(Visibility (m))","max(Visibility (m))","std(Visibility (m))","med(Visibility (m))","min(Weather code (#))","max(Weather code (#))","std(Weather code (#))","med(Weather code (#))","min(Precip intensity (mm/h))","max(Precip intensity (mm/h))","std(Precip intensity (mm/h))","med(Precip intensity (mm/h))"
2013-09-25 00:00:00,2,50000,0,0.00,2,2,0,2,50000,50000,0,50000,0,0,0,0,0.00,0.00,0.00,0.00
2013-09-25 00:10:00,2,48814,0,0.00,2,2,0,2,38642,50000,3394,50000,0,0,0,0,0.00,0.00,0.00,0.00
2013-09-25 00:20:00,2,48780,0,0.00,2,2,0,2,38925,50000,3302,50000,0,0,0,0,0.00,0.00,0.00,0.00
2013-09-25 00:30:00,2,24553,31,0.03,2,2,0,2,2956,50000,19476,20528,0,77,34,20,0.00,0.15,0.06,0.00
2013-09-25 00:40:00,2,9674,77,0.01,2,2,0,2,6556,13642,2337,9081,77,77,0,77,0.00,0.05,0.02,0.00
2013-09-25 00:50:00,2,5045,77,0.06,2,2,0,2,3421,7090,1110,4632,77,77,0,77,0.00,0.10,0.03,0.05
2013-09-25 01:00:00,2,14267,46,0.02,2,2,0,2,4249,23114,7242,15703,0,77,38,77,0.00,0.05,0.02,0.00
2013-09-25 01:10:00,2,36307,0,0.00,2,2,0,2,18436,50000,11566,34386,0,0,0,0,0.00,0.00,0.00,0.00
2013-09-25 01:20:00,2,36983,0,0.00,2,2,0,2,25056,46496,6637,38660,0,0,0,0,0.00,0.00,0.00,0.00
2013-09-25 01:30:00,2,47881,0,0.00,2,2,0,2,40504,50000,3005,49520,0,0,0,0,0.00,0.00,0.00,0.00
2013-09-25 01:40:00,2,40876,0,0.00,2,2,0,2,8376,50000,14535,47906,0,0,0,0,0.00,0.00,0.00,0.00
2013-09-25 01:50:00,2,12350,0,0.00,2,2,0,2,8848,15908,2155,12546,0,0,0,0,0.00,0.00,0.00,0.00
2013-09-25 02:00:00,2,13015,0,0.00,2,2,0,2,6994,24857,4903,11756,0,0,0,0,0.00,0.00,0.00,0.00
2013-09-25 02:10:00,2,10362,7,0.00,2,2,0,2,6766,13705,2466,11149,0,10,5,10,0.00,0.00,0.00,0.00
2013-09-25 02:20:00,2,9967,4,0.00,2,2,0,2,8719,12243,976,9906,0,10,5,0,0.00,0.00,0.00,0.00
2013-09-25 02:30:00,2,8350,7,0.00,2,2,0,2,4915,14237,2961,7212,0,10,5,10,0.00,0.00,0.00,0.00
2013-09-25 02:40:00,2,10586,0,0.00,2,2,0,2,7354,19423,3291,9952,0,0,0,0,0.00,0.00,0.00,0.00
2013-09-25 02:50:00,2,5946,16,0.00,2,2,0,2,3034,9230,2033,5617,0,41,17,10,0.00,0.00,0.00,0.00
2013-09-25 03:00:00,2,6716,10,0.00,2,2,0,2,4421,13656,2871,5430,10,10,0,10,0.00,0.00,0.00,0.00
2013-09-25 03:10:00,2,4036,29,0.04,2,2,0,2,2582,5424,922,4014,10,41,15,41,0.00,0.15,0.05,0.03
2013-09-25 03:20:00,2,7148,35,0.06,2,2,0,2,4042,10929,2663,6952,10,41,12,41,0.00,0.35,0.10,0.00
2013-09-25 03:30:00,2,10803,71,0.15,2,2,0,2,4192,16812,3647,12384,71,71,0,71,0.00,0.65,0.22,0.05
2013-09-25 03:40:00,2,7328,47,0.00,2,2,0,2,4082,16287,3657,5995,10,71,27,56,0.00,0.00,0.00,0.00
2013-09-25 03:50:00,2,8942,59,0.14,2,2,0,2,4192,17076,3626,7936,41,71,15,71,0.00,0.40,0.12,0.12
2013-09-25 04:00:00,2,12997,71,0.14,2,2,0,2,2332,30584,8536,14170,71,71,0,71,0.00,0.95,0.27,0.05
2013-09-25 04:10:00,2,4561,68,0.25,2,2,0,2,2100,9023,2097,4392,67,71,2,67,0.00,0.60,0.18,0.23
2013-09-25 04:20:00,2,8265,71,0.20,2,2,0,2,1872,19862,6610,4768,71,71,0,71,0.00,0.50,0.14,0.17
2013-09-25 04:30:00,2,6958,71,0.18,2,2,0,2,2124,20760,5059,5926,71,71,0,71,0.00,0.60,0.20,0.12
2013-09-25 04:40:00,2,6018,66,0.26,2,2,0,2,3776,9281,2056,5940,61,71,5,66,0.05,0.90,0.24,0.17
2013-09-25 04:50:00,2,9217,71,0.24,2,2,0,2,3714,15908,4009,8956,71,71,0,71,0.05,1.10,0.29,0.17
2013-09-25 05:00:00,2,12856,71,0.15,2,2,0,2,6126,19695,5147,12914,71,71,0,71,0.00,0.60,0.19,0.05
2013-09-25 05:10:00,2,12035,71,0.04,2,2,0,2,3231,34693,9918,8657,71,71,0,71,0.00,0.10,0.04,0.03
2013-09-25 05:20:00,2,29540,73,0.01,2,2,0,2,5771,50000,19511,34402,71,77,3,71,0.00,0.05,0.02,0.00
2013-09-25 05:30:00,2,37476,71,0.03,2,2,0,2,28122,49204,6503,37042,71,71,0,71,0.00,0.15,0.05,0.00
2013-09-25 05:40:00,2,24792,71,0.08,2,2,0,2,12602,45882,12333,18844,71,71,0,71,0.00,0.25,0.09,0.05
2013-09-25 05:50:00,2,14338,71,0.15,2,2,0,2,6839,26891,5651,13594,71,71,0,71,0.00,0.45,0.14,0.12
2013-09-25 06:00:00,2,12196,71,0.27,2,2,0,2,4140,23629,5930,11024,71,71,0,71,0.00,0.75,0.27,0.15
2013-09-25 06:10:00,2,20140,71,0.10,2,2,0,2,6522,30638,7797,21202,71,71,0,71,0.00,0.25,0.08,0.05
2013-09-25 06:20:00,2,23391,72,0.09,2,2,0,2,10003,36371,7870,25110,71,77,2,71,0.00,0.45,0.13,0.03
2013-09-25 06:30:00,2,42442,14,0.00,2,2,0,2,26085,50000,6629,42658,0,71,28,0,0.00,0.00,0.00,0.00
2013-09-25 06:40:00,2,29598,36,0.11,2,2,0,2,6511,50000,16671,28655,0,71,36,36,0.00,0.65,0.22,0.00
2013-09-25 06:50:00,2,39758,71,0.02,2,2,0,2,23415,49187,8182,42974,71,71,0,71,0.00,0.10,0.03,0.00
2013-09-25 07:00:00,2,14284,73,0.17,2,2,0,2,2307,50000,17855,6424,71,77,3,71,0.00,0.55,0.17,0.12
2013-09-25 07:10:00,2,20906,71,0.32,2,2,0,2,3794,44481,12571,22438,71,71,0,71,0.00,1.25,0.41,0.12
2013-09-25 07:20:00,2,33430,71,0.03,2,2,0,2,13473,50000,12916,33876,71,71,0,71,0.00,0.10,0.03,0.03
2013-09-25 07:30:00,2,49639,51,0.00,2,2,0,2,46392,50000,1082,50000,0,77,33,71,0.00,0.00,0.00,0.00
2013-09-25 07:40:00,2,50000,0,0.00,2,2,0,2,50000,50000,0,50000,0,0,0,0,0.00,0.00,0.00,0.00
2013-09-25 07:50:00,2,32215,51,0.02,2,2,0,2,8180,50000,16343,33600,0,77,33,71,0.00,0.20,0.06,0.00
2013-09-25 08:00:00,2,49026,8,0.00,2,2,0,2,40258,50000,2923,50000,0,77,23,0,0.00,0.00,0.00,0.00
2013-09-25 08:10:00,2,30269,8,0.00,2,2,0,2,4608,50000,18313,34756,0,41,16,0,0.00,0.00,0.00,0.00
2013-09-25 08:20:00,2,13461,30,0.09,2,2,0,2,3783,37594,10864,6982,0,41,17,41,0.00,0.60,0.18,0.00
2013-09-25 08:30:00,2,43401,1,0.00,2,2,0,2,29647,50000,6895,46838,0,10,3,0,0.00,0.00,0.00,0.00
2013-09-25 08:40:00,2,21874,58,0.39,2,2,0,2,2569,49508,17825,16104,0,71,23,71,0.00,2.00,0.63,0.05
2013-09-25 08:50:00,2,33140,71,0.02,2,2,0,2,7945,50000,15673,33510,71,71,0,71,0.00,0.10,0.03,0.00
2013-09-25 09:00:00,2,3617,71,0.36,2,2,0,2,2219,7781,1764,2793,71,71,0,71,0.05,1.20,0.34,0.28
2013-09-25 09:10:00,2,14625,71,0.07,2,2,0,2,6681,29987,6733,14176,71,71,0,71,0.00,0.15,0.05,0.05
2013-09-25 09:20:00,2,27398,71,0.04,2,2,0,2,16617,41524,7527,24897,71,71,0,71,0.00,0.10,0.04,0.05
2013-09-25 09:30:00,2,25750,71,0.07,2,2,0,2,15332,37029,7053,25526,71,71,0,71,0.00,0.25,0.09,0.05
2013-09-25 09:40:00,2,47321,52,0.00,2,2,0,2,29895,50000,6141,50000,0,77,34,71,0.00,0.00,0.00,0.00
2013-09-25 09:50:00,2,50000,0,0.00,2,2,0,2,50000,50000,0,50000,0,0,0,0,0.00,0.00,0.00,0.00
2013-09-25 10:00:00,2,50000,0,0.00,2,2,0,2,50000,50000,0,50000,0,0,0,0,0.00,0.00,0.00,0.00
2013-09-25 10:10:00,2,50000,0,0.00,2,2,0,2,50000,50000,0,50000,0,0,0,0,0.00,0.00,0.00,0.00
2013-09-25 10:20:00,2,50000,0,0.00,2,2,0,2,50000,50000,0,50000,0,0,0,0,0.00,0.00,0.00,0.00
2013-09-25 10:30:00,2,50000,0,0.00,2,2,0,2,50000,50000,0,50000,0,0,0,0,0.00,0.00,0.00,0.00
2013-09-25 10:40:00,2,50000,0,0.00,2,2,0,2,50000,50000,0,50000,0,0,0,0,0.00,0.00,0.00,0.00
2013-09-25 10:50:00,2,50000,0,0.00,2,2,0,2,50000,50000,0,50000,0,0,0,0,0.00,0.00,0.00,0.00
2013-09-25 11:00:00,2,50000,0,0.00,2,2,0,2,50000,50000,0,50000,0,0,0,0,0.00,0.00,0.00,0.00
2013-09-25 11:10:00,2,50000,0,0.00,2,2,0,2,50000,50000,0,50000,0,0,0,0,0.00,0.00,0.00,0.00
2013-09-25 11:20:00,2,50000,0,0.00,2,2,0,2,50000,50000,0,50000,0,0,0,0,0.00,0.00,0.00,0.00
2013-09-25 11:30:00,2,50000,0,0.00,2,2,0,2,50000,50000,0,50000,0,0,0,0,0.00,0.00,0.00,0.00
2013-09-25 11:40:00,2,50000,0,0.00,2,2,0,2,50000,50000,0,50000,0,0,0,0,0.00,0.00,0.00,0.00
2013-09-25 11:50:00,2,49996,0,0.00,2,2,0,2,49957,50000,13,50000,0,0,0,0,0.00,0.00,0.00,0.00
2013-09-25 12:00:00,2,50000,0,0.00,2,2,0,2,50000,50000,0,50000,0,0,0,0,0.00,0.00,0.00,0.00
2013-09-25 12:10:00,2,50000,0,0.00,2,2,0,2,50000,50000,0,50000,0,0,0,0,0.00,0.00,0.00,0.00
2013-09-25 12:20:00,2,49953,0,0.00,2,2,0,2,49534,50000,140,50000,0,0,0,0,0.00,0.00,0.00,0.00
2013-09-25 12:30:00,2,50000,0,0.00,2,2,0,2,50000,50000,0,50000,0,0,0,0,0.00,0.00,0.00,0.00
2013-09-25 12:40:00,2,50000,0,0.00,2,2,0,2,50000,50000,0,50000,0,0,0,0,0.00,0.00,0.00,0.00
2013-09-25 12:50:00,2,50000,0,0.00,2,2,0,2,50000,50000,0,50000,0,0,0,0,0.00,0.00,0.00,0.00
2013-09-25 13:00:00,2,50000,0,0.00,2,2,0,2,50000,50000,0,50000,0,0,0,0,0.00,0.00,0.00,0.00
2013-09-25 13:10:00,2,50000,0,0.00,2,2,0,2,50000,50000,0,50000,0,0,0,0,0.00,0.00,0.00,0.00
2013-09-25 13:20:00,2,50000,0,0.00,2,2,0,2,50000,50000,0,50000,0,0,0,0,0.00,0.00,0.00,0.00
2013-09-25 13:30:00,2,50000,0,0.00,2,2,0,2,50000,50000,0,50000,0,0,0,0,0.00,0.00,0.00,0.00
2013-09-25 13:40:00,2,34565,23,0.00,2,2,0,2,17038,50000,12764,32950,0,71,25,20,0.00,0.00,0.00,0.00
2013-09-25 13:50:00,2,34936,30,0.00,2,2,0,2,22646,46742,6848,33276,0,77,36,0,0.00,0.00,0.00,0.00
2013-09-25 14:00:00,2,23624,51,0.01,2,2,0,2,8714,47857,13859,17935,0,77,33,71,0.00,0.05,0.02,0.00
2013-09-25 14:10:00,2,47610,0,0.00,2,2,0,2,41298,50000,3182,48994,0,0,0,0,0.00,0.00,0.00,0.00
2013-09-25 14:20:00,2,44871,0,0.00,2,2,0,2,26588,50000,7413,48331,0,0,0,0,0.00,0.00,0.00,0.00
2013-09-25 14:30:00,2,36354,28,0.00,2,2,0,2,13864,50000,13815,41509,0,71,35,0,0.00,0.00,0.00,0.00
2013-09-25 14:40:00,2,44274,0,0.00,2,2,0,2,25429,50000,8845,50000,0,0,0,0,0.00,0.00,0.00,0.00
2013-09-25 14:50:00,2,43734,0,0.00,2,2,0,2,23986,50000,9494,50000,0,0,0,0,0.00,0.00,0.00,0.00
2013-09-25 15:00:00,2,49252,0,0.00,2,2,0,2,42525,50000,2242,50000,0,0,0,0,0.00,0.00,0.00,0.00
2013-09-25 15:10:00,2,33093,0,0.00,2,2,0,2,13576,48965,11644,36006,0,0,0,0,0.00,0.00,0.00,0.00
2013-09-25 15:20:00,2,48999,0,0.00,2,2,0,2,45853,50000,1552,50000,0,0,0,0,0.00,0.00,0.00,0.00
2013-09-25 15:30:00,2,10024,40,0.18,2,2,0,2,1900,29513,9644,5523,0,77,32,40,0.00,0.80,0.25,0.03
2013-09-25 15:40:00,2,25827,37,0.00,2,2,0,2,15237,49153,10246,22130,0,77,37,36,0.00,0.00,0.00,0.00
2013-09-25 15:50:00,2,49103,35,0.00,2,2,0,2,45033,50000,1767,50000,0,77,36,20,0.00,0.00,0.00,0.00
2013-09-25 16:00:00,2,48838,0,0.00,2,2,0,2,44936,50000,1895,50000,0,0,0,0,0.00,0.00,0.00,0.00
2013-09-25 16:10:00,2,39041,14,0.01,2,2,0,2,3462,50000,18235,50000,0,71,28,0,0.00,0.05,0.02,0.00
2013-09-25 16:20:00,2,35270,22,0.00,2,2,0,2,4780,50000,18488,47562,0,77,33,0,0.00,0.00,0.00,0.00
2013-09-25 16:30:00,2,30346,28,1.03,2,2,0,2,786,50000,23322,48069,0,71,35,0,0.00,7.15,2.13,0.00
2013-09-25 16:40:00,2,21644,57,1.90,2,2,0,2,779,50000,18778,15190,0,71,28,71,0.00,12.10,3.89,0.00
2013-09-25 16:50:00,2,39258,0,0.00,2,2,0,2,26606,50000,8067,37876,0,0,0,0,0.00,0.00,0.00,0.00
2013-09-25 17:00:00,2,20374,30,0.01,2,2,0,2,6162,48893,11888,19302,0,71,27,40,0.00,0.05,0.02,0.00
2013-09-25 17:10:00,2,25911,14,0.01,2,2,0,2,4420,43852,12409,26270,0,71,28,0,0.00,0.05,0.02,0.00
2013-09-25 17:20:00,2,27136,53,0.00,2,2,0,2,5851,50000,16702,21171,0,77,33,71,0.00,0.05,0.01,0.00
2013-09-25 17:30:00,2,49297,0,0.00,2,2,0,2,45006,50000,1479,50000,0,0,0,0,0.00,0.00,0.00,0.00
2013-09-25 17:40:00,2,40314,0,0.00,2,2,0,2,18344,49739,9562,43910,0,0,0,0,0.00,0.00,0.00,0.00
2013-09-25 17:50:00,2,50000,0,0.00,2,2,0,2,50000,50000,0,50000,0,0,0,0,0.00,0.00,0.00,0.00
2013-09-25 18:00:00,2,49902,0,0.00,2,2,0,2,49018,50000,295,50000,0,0,0,0,0.00,0.00,0.00,0.00
2013-09-25 18:10:00,2,49690,0,0.00,2,2,0,2,46902,50000,929,50000,0,0,0,0,0.00,0.00,0.00,0.00
2013-09-25 18:20:00,2,50000,0,0.00,2,2,0,2,50000,50000,0,50000,0,0,0,0,0.00,0.00,0.00,0.00
2013-09-25 18:30:00,2,49658,0,0.00,2,2,0,2,47615,50000,711,50000,0,0,0,0,0.00,0.00,0.00,0.00
2013-09-25 18:40:00,2,49668,0,0.00,2,2,0,2,47371,50000,780,50000,0,0,0,0,0.00,0.00,0.00,0.00
2013-09-25 18:50:00,2,49846,0,0.00,2,2,0,2,49117,50000,313,50000,0,0,0,0,0.00,0.00,0.00,0.00
2013-09-25 19:00:00,2,35069,12,0.01,2,2,0,2,7300,50000,15855,41120,0,40,18,0,0.00,0.05,0.02,0.00
2013-09-25 19:10:00,2,24234,23,0.01,2,2,0,2,5951,50000,18039,17325,0,71,25,20,0.00,0.05,0.02,0.00
2013-09-25 19:20:00,2,30247,29,0.01,2,2,0,2,7245,50000,15502,32618,0,77,36,0,0.00,0.05,0.02,0.00
2013-09-25 19:30:00,2,15280,74,0.00,2,2,0,2,7800,25400,5300,14902,71,77,3,74,0.00,0.00,0.00,0.00
2013-09-25 19:40:00,2,23685,52,0.01,2,2,0,2,10391,38923,8893,24708,0,77,34,71,0.00,0.05,0.02,0.00
2013-09-25 19:50:00,2,46478,0,0.00,2,2,0,2,38234,50000,3961,47434,0,0,0,0,0.00,0.00,0.00,0.00
2013-09-25 20:00:00,2,50000,0,0.00,2,2,0,2,50000,50000,0,50000,0,0,0,0,0.00,0.00,0.00,0.00
2013-09-25 20:10:00,2,49064,0,0.00,2,2,0,2,45255,50000,1859,50000,0,0,0,0,0.00,0.00,0.00,0.00
2013-09-25 20:20:00,2,49979,0,0.00,2,2,0,2,49789,50000,63,50000,0,0,0,0,0.00,0.00,0.00,0.00
2013-09-25 20:30:00,2,32850,16,0.01,2,2,0,2,12448,50000,16626,35263,0,40,20,0,0.00,0.05,0.02,0.00
2013-09-25 20:40:00,2,42269,37,0.00,2,2,0,2,20794,50000,9961,48274,0,77,37,36,0.00,0.00,0.00,0.00
2013-09-25 20:50:00,2,38902,0,0.00,2,2,0,2,21514,50000,9752,41218,0,0,0,0,0.00,0.00,0.00,0.00
2013-09-25 21:00:00,2,17703,59,0.01,2,2,0,2,5582,46429,11320,14816,0,77,30,71,0.00,0.05,0.02,0.00
2013-09-25 21:10:00,2,20580,31,0.08,2,2,0,2,3553,49722,16607,11974,0,77,38,0,0.00,0.40,0.13,0.00
2013-09-25 21:20:00,2,7801,74,0.04,2,2,0,2,4058,13710,3047,7278,71,77,3,74,0.00,0.10,0.05,0.00
2013-09-25 21:30:00,2,27462,37,0.01,2,2,0,2,10263,38639,8169,30774,0,77,37,36,0.00,0.05,0.02,0.00
2013-09-25 21:40:00,2,6705,59,0.06,2,2,0,2,3164,10701,2687,6299,0,77,30,71,0.00,0.15,0.05,0.05
2013-09-25 21:50:00,2,29008,30,0.00,2,2,0,2,10533,45851,12977,32126,0,77,36,0,0.00,0.00,0.00,0.00
2013-09-25 22:00:00,2,18967,28,0.05,2,2,0,2,3023,43053,13672,14858,0,71,35,0,0.00,0.40,0.12,0.00
2013-09-25 22:10:00,2,4096,77,0.20,2,2,0,2,1623,6776,1488,3838,77,77,0,77,0.05,0.75,0.19,0.15
2013-09-25 22:20:00,2,21425,60,0.17,2,2,0,2,1306,39890,13277,24089,0,77,30,77,0.00,0.95,0.32,0.00
2013-09-25 22:30:00,2,26761,21,0.00,2,2,0,2,7739,48473,13786,29285,0,71,33,0,0.00,0.00,0.00,0.00
2013-09-25 22:40:00,2,12561,56,0.02,2,2,0,2,2661,22275,6831,13924,10,77,30,77,0.00,0.10,0.04,0.00
2013-09-25 22:50:00,2,22222,30,0.03,2,2,0,2,3316,49001,16642,21340,0,71,33,10,0.00,0.25,0.07,0.00
2013-09-25 23:00:00,2,49735,0,0.00,2,2,0,2,47350,50000,795,50000,0,0,0,0,0.00,0.00,0.00,0.00
2013-09-25 23:10:00,2,45861,0,0.00,2,2,0,2,37926,50000,4005,47666,0,0,0,0,0.00,0.00,0.00,0.00
2013-09-25 23:20:00,2,48829,0,0.00,2,2,0,2,42137,50000,2378,50000,0,0,0,0,0.00,0.00,0.00,0.00
2013-09-25 23:30:00,2,48537,0,0.00,2,2,0,2,42224,50000,2362,50000,0,0,0,0,0.00,0.00,0.00,0.00
2013-09-25 23:40:00,2,48303,0,0.00,2,2,0,2,42634,50000,2402,49874,0,0,0,0,0.00,0.00,0.00,0.00
2013-09-25 23:50:00,2,48675,0,0.00,2,2,0,2,46980,50000,1168,48388,0,0,0,0,0.00,0.00,0.00,0.00
